CW5091 Weather Reports


Display with metric or nautical units.
time (UTC)temp
F
wind
direction
speed
MPH
gust
MPH
rain 1hr
in
rain 24hr
in
rain mn
in
humidity
%
barometer
mb
20180624165855 76 151 1.0 0.0 0.00 0.00 0.00 25 1019.7
20180624165329 75 151 1.0 2.0 0.00 0.00 0.00 23 1028.6
20180624164341 74 151 1.0 3.0 0.00 0.00 0.00 24 1028.6
20180624164256 74 151 1.0 0.0 0.00 0.00 0.00 24 1019.6
20180624163332 74 107 0.0 2.0 0.00 0.00 0.00 24 1028.6
20180624162715 73 108 0.0 0.0 0.00 0.00 0.00 29 1020.1
20180624162335 73 108 0.0 2.0 0.00 0.00 0.00 30 1029.1
20180624161348 72 108 0.0 1.0 0.00 0.00 0.00 34 1028.9
20180624161108 71 108 0.0 0.0 0.00 0.00 0.00 29 1020.0
20180624160332 71 108 0.0 2.0 0.00 0.00 0.00 30 1028.9
20180624155541 70 108 0.0 0.0 0.00 0.00 0.00 31 1020.4
20180624155341 70 108 0.0 2.0 0.00 0.00 0.00 33 1029.3
20180624154351 70 108 1.0 2.0 0.00 0.00 0.00 30 1029.5
20180624153923 69 92 0.0 0.0 0.00 0.00 0.00 32 1020.7
20180624153349 68 92 0.0 1.0 0.00 0.00 0.00 38 1029.5
20180624152357 65 92 0.0 0.0 0.00 0.00 0.00 44 1021.1
20180624152340 66 92 0.0 0.0 0.00 0.00 0.00 44 1029.1
20180624151351 65 92 0.0 1.0 0.00 0.00 0.00 46 1029.4
20180624150738 64 92 0.0 0.0 0.00 0.00 0.00 45 1020.5
20180624150351 64 92 0.0 1.0 0.00 0.00 0.00 44 1029.4
20180624145354 62 92 0.0 1.0 0.00 0.00 0.00 46 1029.6
20180624145127 62 92 0.0 0.0 0.00 0.00 0.00 47 1020.7
20180624144340 61 92 0.0 0.0 0.00 0.00 0.00 52 1029.1
20180624143553 59 92 0.0 0.0 0.00 0.00 0.00 51 1021.0
20180624143352 60 92 0.0 1.0 0.00 0.00 0.00 48 1029.1
20180624142336 59 92 0.0 1.0 0.00 0.00 0.00 51 1029.5
20180624141935 58 92 0.0 0.0 0.00 0.00 0.00 49 1021.4
20180624141343 58 92 0.0 1.0 0.00 0.00 0.00 52 1029.3
20180624140409 55 92 0.0 0.0 0.00 0.00 0.00 59 1020.4
20180624140334 56 92 0.0 0.0 0.00 0.00 0.00 60 1029.3
20180624135346 55 92 0.0 0.0 0.00 0.00 0.00 61 1029.6
20180624134755 54 92 0.0 0.0 0.00 0.00 0.00 61 1020.7
20180624134351 54 92 0.0 0.0 0.00 0.00 0.00 61 1029.6
20180624133352 53 92 0.0 0.0 0.00 0.00 0.00 62 1029.6
20180624133144 53 92 0.0 0.0 0.00 0.00 0.00 61 1020.8
20180624132356 52 92 0.0 0.0 0.00 0.00 0.00 60 1029.2
20180624131607 51 92 0.0 0.0 0.00 0.00 0.00 61 1021.1
20180624131339 52 92 0.0 0.0 0.00 0.00 0.00 60 1029.7
20180624130332 52 92 0.0 0.0 0.00 0.00 0.00 58 1029.7
20180624125952 51 92 0.0 0.0 0.00 0.00 0.00 58 1020.8
20180624125340 52 92 0.0 0.0 0.00 0.00 0.00 56 1029.7
20180624124428 52 92 0.0 0.0 0.00 0.00 0.00 55 1020.4
20180624124354 52 92 0.0 0.0 0.00 0.00 0.00 55 1029.3
20180624123356 53 92 0.0 0.0 0.00 0.00 0.00 52 1029.3
20180624122821 52 92 0.0 0.0 0.00 0.00 0.00 51 1020.1
20180624122343 53 92 0.0 0.0 0.00 0.00 0.00 51 1029.0
20180624121349 53 92 0.0 0.0 0.00 0.00 0.00 47 1028.6
20180624121218 53 92 0.0 0.0 0.00 0.00 0.00 48 1019.7
20180624120353 54 92 0.0 0.0 0.00 0.00 0.00 47 1028.6
20180624115633 55 92 0.0 0.0 0.00 0.00 0.00 46 1019.2
20180624115358 55 92 0.0 0.0 0.00 0.00 0.00 44 1029.0
20180624114341 55 92 0.0 1.0 0.00 0.00 0.00 43 1028.5
20180624114027 55 92 0.0 0.0 0.00 0.00 0.00 43 1019.5
20180624113333 55 92 0.0 0.0 0.00 0.00 0.00 43 1028.5
20180624112441 55 92 0.0 0.0 0.00 0.00 0.00 45 1019.0
20180624112342 56 92 0.0 0.0 0.00 0.00 0.00 44 1028.7
20180624111348 57 92 0.0 1.0 0.00 0.00 0.00 40 1028.6
20180624110837 57 92 0.0 0.0 0.00 0.00 0.00 41 1018.8
20180624110358 57 92 0.0 0.0 0.00 0.00 0.00 41 1028.6
20180624105342 58 92 0.0 0.0 0.00 0.00 0.00 38 1028.3
20180624105237 58 92 0.0 0.0 0.00 0.00 0.00 39 1018.5
20180624104354 59 92 0.0 1.0 0.00 0.00 0.00 39 1028.2
20180624103657 58 92 0.0 0.0 0.00 0.00 0.00 39 1018.5
20180624103337 59 92 0.0 0.0 0.00 0.00 0.00 39 1028.2
20180624102336 59 92 0.0 2.0 0.00 0.00 0.00 37 1028.2
20180624102052 59 92 0.0 0.0 0.00 0.00 0.00 38 1018.5
20180624101346 60 92 0.0 0.0 0.00 0.00 0.00 39 1027.8
20180624100535 61 92 0.0 0.0 0.00 0.00 0.00 35 1018.1
20180624100340 61 92 0.0 1.0 0.00 0.00 0.00 34 1027.8
20180624095349 61 92 0.0 1.0 0.00 0.00 0.00 35 1028.2
20180624094911 60 92 0.0 0.0 0.00 0.00 0.00 38 1018.5
20180624094356 61 92 0.0 2.0 0.00 0.00 0.00 37 1027.6
20180624093342 62 92 0.0 1.0 0.00 0.00 0.00 35 1027.6
20180624093304 61 92 0.0 0.0 0.00 0.00 0.00 35 1017.8
20180624092353 60 92 0.0 1.0 0.00 0.00 0.00 39 1027.5
20180624091355 61 92 0.0 1.0 0.00 0.00 0.00 38 1027.7
20180624090335 61 92 0.0 0.0 0.00 0.00 0.00 39 1027.7
20180624090108 61 92 0.0 0.0 0.00 0.00 0.00 38 1017.9
20180624085340 62 92 0.0 1.0 0.00 0.00 0.00 36 1027.3
20180624084546 61 92 0.0 0.0 0.00 0.00 0.00 38 1017.5
20180624084335 62 92 0.0 0.0 0.00 0.00 0.00 38 1027.3
20180624083350 62 92 0.0 1.0 0.00 0.00 0.00 37 1027.3
20180624082929 62 92 0.0 0.0 0.00 0.00 0.00 36 1017.5
20180624082353 62 92 0.0 1.0 0.00 0.00 0.00 39 1027.3
20180624081356 61 92 0.0 0.0 0.00 0.00 0.00 40 1017.2
20180624081338 61 92 0.0 0.0 0.00 0.00 0.00 42 1027.0
20180624080330 62 92 0.0 0.0 0.00 0.00 0.00 46 1027.0
20180624075750 61 92 0.0 0.0 0.00 0.00 0.00 46 1017.1
20180624075343 62 92 0.0 0.0 0.00 0.00 0.00 47 1026.9
20180624074333 63 92 0.0 1.0 0.00 0.00 0.00 44 1026.7
20180624074141 62 92 0.0 0.0 0.00 0.00 0.00 43 1016.8
20180624073342 64 92 0.0 2.0 0.00 0.00 0.00 39 1026.7
20180624072612 64 92 0.0 0.0 0.00 0.00 0.00 35 1016.9
20180624072333 64 92 0.0 1.0 0.00 0.00 0.00 35 1026.7
20180624071345 63 92 0.0 0.0 0.00 0.00 0.00 37 1026.9
20180624070957 63 92 0.0 0.0 0.00 0.00 0.00 36 1017.1
20180624070400 63 92 0.0 0.0 0.00 0.00 0.00 38 1026.9
20180624065404 63 92 0.0 0.0 0.00 0.00 0.00 36 1016.9
20180624065348 64 92 0.0 0.0 0.00 0.00 0.00 36 1026.8
20180624064352 64 92 0.0 1.0 0.00 0.00 0.00 37 1026.4
20180624063749 64 92 0.0 0.0 0.00 0.00 0.00 34 1016.6
20180624063356 65 92 0.0 0.0 0.00 0.00 0.00 35 1026.4
20180624062341 66 92 0.0 1.0 0.00 0.00 0.00 35 1026.2
20180624062137 65 92 0.0 0.0 0.00 0.00 0.00 35 1016.4
20180624061332 66 92 0.0 0.0 0.00 0.00 0.00 36 1026.4
20180624060545 66 92 0.0 0.0 0.00 0.00 0.00 37 1016.6
20180624060336 67 92 0.0 0.0 0.00 0.00 0.00 36 1026.4
20180624055347 68 92 0.0 1.0 0.00 0.00 0.00 34 1026.4
20180624054905 67 92 0.0 0.0 0.00 0.00 0.00 35 1016.6
20180624054340 68 92 0.0 0.0 0.00 0.00 0.00 34 1026.5
20180624053351 68 92 0.0 1.0 0.00 0.00 0.00 33 1026.5
20180624053306 68 92 0.0 0.0 0.00 0.00 0.00 34 1016.6
20180624052358 69 92 0.0 0.0 0.00 0.00 0.00 34 1026.4
20180624051658 68 92 0.0 0.0 0.00 0.00 0.00 33 1016.6
20180624051342 68 92 0.0 0.0 0.00 0.00 0.00 34 1026.1
20180624050339 69 92 0.0 1.0 0.00 0.00 0.00 33 1026.1
20180624050051 68 92 0.0 0.0 0.00 0.00 0.00 33 1017.2
20180624045358 70 92 0.0 1.0 0.00 0.00 0.00 32 1026.2
20180624044519 71 92 0.0 0.0 0.00 0.00 0.00 29 1016.4
20180624044346 72 92 0.0 2.0 0.00 0.00 0.00 28 1026.2
20180624043335 72 92 0.0 1.0 0.00 0.00 0.00 28 1026.2
20180624042908 70 92 0.0 0.0 0.00 0.00 0.00 28 1016.3
20180624042347 70 92 0.0 0.0 0.00 0.00 0.00 28 1026.1
20180624041351 71 92 0.0 1.0 0.00 0.00 0.00 27 1025.4
20180624041303 71 92 0.0 0.0 0.00 0.00 0.00 27 1016.4
20180624040337 71 92 0.0 1.0 0.00 0.00 0.00 27 1025.4
20180624035723 72 92 0.0 0.0 0.00 0.00 0.00 26 1016.2
20180624035353 73 92 0.0 1.0 0.00 0.00 0.00 24 1025.2
20180624034337 74 92 0.0 1.0 0.00 0.00 0.00 23 1025.6
20180624034117 74 92 0.0 0.0 0.00 0.00 0.00 23 1015.7
20180624033350 75 92 0.0 1.0 0.00 0.00 0.00 21 1025.6
20180624032551 75 92 0.0 0.0 0.00 0.00 0.00 21 1015.4
20180624032346 76 92 0.0 1.0 0.00 0.00 0.00 21 1025.3
20180624031336 76 92 0.0 1.0 0.00 0.00 0.00 21 1025.4
20180624030931 76 92 0.0 0.0 0.00 0.00 0.00 23 1015.5
20180624030348 77 92 0.0 1.0 0.00 0.00 0.00 25 1025.4
20180624025353 78 92 0.0 1.0 0.00 0.00 0.00 24 1024.9
20180624025321 78 92 0.0 0.0 0.00 0.00 0.00 23 1015.0
20180624024340 80 92 0.0 1.0 0.00 0.00 0.00 22 1024.9
20180624023746 81 92 0.0 0.0 0.00 0.00 0.00 21 1014.1
20180624023353 82 92 0.0 2.0 0.00 0.00 0.00 21 1024.9
20180624022337 84 74 1.0 3.0 0.00 0.00 0.00 18 1024.9
20180624022141 83 65 1.0 0.0 0.00 0.00 0.00 19 1014.1
20180624021343 85 62 0.0 3.0 0.00 0.00 0.00 18 1024.2
20180624020614 84 92 1.0 0.0 0.00 0.00 0.00 19 1014.3
20180624020341 85 196 1.0 2.0 0.00 0.00 0.00 19 1024.2
20180624015357 85 51 1.0 3.0 0.00 0.00 0.00 19 1024.0
20180624015007 85 51 1.0 0.0 0.00 0.00 0.00 18 1014.1
20180624014339 85 79 0.0 3.0 0.00 0.00 0.00 22 1023.9
20180624013434 85 81 1.0 0.0 0.00 0.00 0.00 18 1014.0
20180624013350 86 100 0.0 2.0 0.00 0.00 0.00 18 1023.9
20180624012355 86 93 1.0 3.0 0.00 0.00 0.00 16 1023.9
20180624011820 86 123 1.0 0.0 0.00 0.00 0.00 18 1014.0
20180624011340 86 123 1.0 2.0 0.00 0.00 0.00 18 1024.3
20180624010332 87 72 1.0 4.0 0.00 0.00 0.00 17 1024.3
20180624010225 86 90 1.0 0.0 0.00 0.00 0.00 17 1014.4
20180624005341 87 58 1.0 3.0 0.00 0.00 0.00 17 1024.5
20180624004651 86 197 1.0 0.0 0.00 0.00 0.00 17 1014.6
20180624004338 87 166 1.0 3.0 0.00 0.00 0.00 18 1024.5
20180624003333 87 32 1.0 4.0 0.00 0.00 0.00 19 1024.5
20180624003047 86 138 1.0 0.0 0.00 0.00 0.00 19 1014.7
20180624002347 87 326 1.0 2.0 0.00 0.00 0.00 20 1024.5
20180624001515 86 105 1.0 0.0 0.00 0.00 0.00 20 1014.6
20180624001355 87 131 1.0 5.0 0.00 0.00 0.00 19 1024.5
20180624000339 88 81 1.0 2.0 0.00 0.00 0.00 23 1024.5
20180623235908 88 72 1.0 0.0 0.00 0.00 0.00 22 1014.5
20180623235352 87 82 1.0 4.0 0.00 0.00 0.00 23 1024.4
20180623234357 88 110 0.0 6.0 0.00 0.00 0.00 22 1024.5
20180623234306 88 110 1.0 0.0 0.00 0.00 0.00 22 1014.6
20180623233337 88 45 1.0 3.0 0.00 0.00 0.00 24 1024.5
20180623232728 87 86 1.0 0.0 0.00 0.00 0.00 23 1014.6
20180623232346 87 87 1.0 3.0 0.00 0.00 0.00 22 1024.4
20180623231353 88 338 1.0 3.0 0.00 0.00 0.00 21 1024.9
20180623231111 87 106 1.0 0.0 0.00 0.00 0.00 23 1014.2
20180623230338 87 142 0.0 2.0 0.00 0.00 0.00 22 1024.9
20180623225543 87 142 1.0 0.0 0.00 0.00 0.00 21 1014.3
20180623225331 87 171 1.0 3.0 0.00 0.00 0.00 22 1025.1
20180623224349 87 22 1.0 3.0 0.00 0.00 0.00 22 1024.4
20180623223926 87 139 1.0 0.0 0.00 0.00 0.00 23 1014.5
20180623223355 87 114 2.0 4.0 0.00 0.00 0.00 21 1024.4
20180623222359 87 104 1.0 0.0 0.00 0.00 0.00 21 1014.2
20180623222342 87 104 1.0 3.0 0.00 0.00 0.00 21 1024.9
20180623221335 88 97 1.0 4.0 0.00 0.00 0.00 20 1024.8
20180623220753 87 166 1.0 0.0 0.00 0.00 0.00 21 1014.1
20180623220342 86 166 0.0 4.0 0.00 0.00 0.00 22 1024.8
20180623215340 87 129 0.0 3.0 0.00 0.00 0.00 21 1024.8
20180623215151 87 129 1.0 0.0 0.00 0.00 0.00 22 1014.1
20180623214338 87 122 1.0 4.0 0.00 0.00 0.00 21 1025.3
20180623213621 87 116 1.0 0.0 0.00 0.00 0.00 23 1014.6
20180623213351 87 164 1.0 7.0 0.00 0.00 0.00 22 1025.3
20180623212337 87 154 1.0 4.0 0.00 0.00 0.00 21 1025.0
20180623212006 86 96 1.0 0.0 0.00 0.00 0.00 21 1014.3
20180623211350 88 96 1.0 4.0 0.00 0.00 0.00 19 1025.5
20180623210432 85 137 1.0 0.0 0.00 0.00 0.00 22 1015.6
20180623210355 86 137 1.0 2.0 0.00 0.00 0.00 23 1025.5
20180623205340 86 137 1.0 4.0 0.00 0.00 0.00 21 1025.6
20180623204815 86 143 1.0 0.0 0.00 0.00 0.00 21 1015.7
20180623204355 86 193 0.0 2.0 0.00 0.00 0.00 21 1025.5
20180623203339 82 190 0.0 2.0 0.00 0.00 0.00 23 1025.5
20180623203223 82 190 0.0 0.0 0.00 0.00 0.00 21 1016.6
20180623202338 83 185 0.0 2.0 0.00 0.00 0.00 24 1026.0
20180623201646 84 185 1.0 0.0 0.00 0.00 0.00 22 1016.2
20180623201337 84 202 0.0 4.0 0.00 0.00 0.00 27 1026.2
20180623200359 84 185 0.0 4.0 0.00 0.00 0.00 23 1026.2
20180623200039 83 185 1.0 0.0 0.00 0.00 0.00 24 1016.3
20180623195345 83 132 1.0 3.0 0.00 0.00 0.00 22 1025.8
20180623194500 80 109 1.0 0.0 0.00 0.00 0.00 23 1016.7
20180623194353 81 109 0.0 4.0 0.00 0.00 0.00 23 1026.6
20180623193340 84 173 2.0 4.0 0.00 0.00 0.00 22 1026.6
20180623192848 83 92 1.0 0.0 0.00 0.00 0.00 24 1017.1
20180623192353 82 120 0.0 4.0 0.00 0.00 0.00 27 1026.1
20180623191339 81 208 1.0 3.0 0.00 0.00 0.00 23 1026.5
20180623191240 81 208 1.0 0.0 0.00 0.00 0.00 24 1016.7
20180623190333 82 173 1.0 4.0 0.00 0.00 0.00 26 1026.5
20180623185658 83 156 1.0 0.0 0.00 0.00 0.00 22 1016.8
20180623185342 82 99 1.0 5.0 0.00 0.00 0.00 27 1026.7
20180623184336 80 118 0.0 2.0 0.00 0.00 0.00 24 1026.8
20180623184044 79 118 0.0 0.0 0.00 0.00 0.00 27 1017.0
20180623183347 80 118 0.0 2.0 0.00 0.00 0.00 31 1026.8
20180623182457 78 118 1.0 0.0 0.00 0.00 0.00 26 1017.6
20180623182353 78 118 0.0 3.0 0.00 0.00 0.00 29 1026.6
20180623181335 79 110 1.0 3.0 0.00 0.00 0.00 29 1026.7
20180623180848 78 104 0.0 0.0 0.00 0.00 0.00 29 1017.7
20180623180345 79 104 1.0 3.0 0.00 0.00 0.00 29 1026.7
20180623175336 78 64 0.0 3.0 0.00 0.00 0.00 31 1026.7
20180623175249 78 64 1.0 0.0 0.00 0.00 0.00 31 1017.7
20180623174352 78 95 1.0 6.0 0.00 0.00 0.00 28 1027.0
20180623173708 77 95 1.0 0.0 0.00 0.00 0.00 29 1018.1
20180623173359 77 71 1.0 3.0 0.00 0.00 0.00 30 1027.0
20180623172342 77 112 1.0 3.0 0.00 0.00 0.00 31 1027.0
20180623172043 76 111 1.0 0.0 0.00 0.00 0.00 31 1018.1
20180623171350 76 179 0.0 4.0 0.00 0.00 0.00 32 1026.7
20180623170458 75 136 1.0 0.0 0.00 0.00 0.00 31 1017.7
20180623170354 75 168 1.0 3.0 0.00 0.00 0.00 32 1026.7